W8SZ Weather Reports


time (UTC)temp
C
wind
direction
speed
KPH
gust
KPH
rain 1hr
cm
rain 24hr
cm
rain mn
cm
humidity
%
barometer
mb
20220525124320 9 35 8.0 0.0 0.00 0.00 0.00 91 1023.7
20220525123821 9 34 1.6 0.0 0.00 0.00 0.00 92 1024.0
20220525123325 9 34 1.6 0.0 0.00 0.00 0.00 91 1023.7
20220525122811 9 34 3.2 0.0 0.00 0.00 0.00 91 1023.9
20220525122315 9 34 4.8 0.0 0.00 0.00 0.00 91 1023.6
20220525121817 9 95 3.2 0.0 0.00 0.00 0.00 92 1024.1
20220525121322 9 96 4.8 0.0 0.00 0.00 0.00 92 1024.1
20220525120809 9 95 4.8 0.0 0.00 0.00 0.00 91 1024.3
20220525120336 9 34 3.2 0.0 0.00 0.00 0.00 92 1024.9
20220525115813 8 33 1.6 0.0 0.00 0.00 0.00 92 1024.7
20220525115317 8 32 4.8 0.0 0.00 0.00 0.00 93 1024.1
20220525114818 8 32 1.6 0.0 0.00 0.00 0.00 94 1024.6
20220525114319 8 32 3.2 0.0 0.00 0.00 0.00 94 1024.2
20220525113824 8 32 3.2 0.0 0.00 0.00 0.00 94 1024.3
20220525113325 8 32 3.2 0.0 0.00 0.00 0.00 94 1023.9
20220525112818 8 35 4.8 0.0 0.00 0.00 0.00 96 1024.0
20220525112322 8 35 1.6 0.0 0.00 0.00 0.00 95 1024.1
20220525111827 8 33 3.2 0.0 0.00 0.00 0.00 96 1024.5
20220525111308 8 33 1.6 0.0 0.00 0.00 0.00 95 1024.4
20220525110815 8 38 0.0 0.0 0.00 0.00 0.00 94 1023.8
20220525110318 8 38 3.2 0.0 0.00 0.00 0.00 94 1023.7
20220525105812 8 40 3.2 0.0 0.00 0.00 0.00 93 1024.2
20220525105314 8 25 8.0 0.0 0.00 0.00 0.00 93 1023.7
20220525104816 8 32 8.0 0.0 0.00 0.00 0.00 92 1023.6
20220525104316 8 73 6.4 0.0 0.00 0.00 0.00 92 1023.9
20220525103818 8 61 12.9 0.0 0.00 0.00 0.00 92 1023.7
20220525103322 8 72 8.0 0.0 0.00 0.00 0.00 91 1023.9
20220525102811 8 83 11.3 0.0 0.00 0.00 0.00 92 1023.7
20220525102311 8 102 8.0 0.0 0.00 0.00 0.00 90 1024.0
20220525101818 8 88 9.7 0.0 0.00 0.00 0.00 90 1023.7
20220525101305 8 128 12.9 0.0 0.00 0.00 0.00 93 1024.3
20220525100812 7 93 9.7 0.0 0.00 0.00 0.00 94 1023.9
20220525100319 7 87 6.4 0.0 0.00 0.00 0.00 96 1023.7
20220525095817 7 80 3.2 0.0 0.00 0.00 0.00 98 1024.2
20220525095320 6 24 4.8 0.0 0.00 0.00 0.00 100 1023.4
20220525094826 6 22 1.6 0.0 0.00 0.00 0.00 100 1024.0
20220525094310 6 22 1.6 0.0 0.00 0.00 0.00 100 1024.1
20220525093813 6 22 3.2 0.0 0.00 0.00 0.00 100 1023.9
20220525093318 6 23 0.0 0.0 0.00 0.00 0.00 100 1024.2
20220525092811 6 22 1.6 0.0 0.00 0.00 0.00 100 1023.7
20220525092316 6 23 3.2 0.0 0.00 0.00 0.00 100 1024.0
20220525091819 6 23 0.0 0.0 0.00 0.00 0.00 100 1024.0
20220525091319 7 23 1.6 0.0 0.00 0.00 0.00 100 1024.4
20220525090819 7 22 1.6 0.0 0.00 0.00 0.00 100 1023.8
20220525090325 7 0 3.2 0.0 0.00 0.00 0.00 99 1023.6
20220525085817 7 0 1.6 0.0 0.00 0.00 0.00 99 1024.0
20220525085323 7 0 1.6 0.0 0.00 0.00 0.00 99 1024.0
20220525084810 7 0 4.8 0.0 0.00 0.00 0.00 98 1023.9
20220525084303 7 0 1.6 0.0 0.00 0.00 0.00 99 1023.4
20220525083815 7 11 6.4 0.0 0.00 0.00 0.00 98 1024.5
20220525083322 7 0 3.2 0.0 0.00 0.00 0.00 98 1023.7
20220525082815 7 27 9.7 0.0 0.00 0.00 0.00 97 1023.9
20220525082317 7 6 9.7 0.0 0.00 0.00 0.00 97 1023.6
20220525081820 7 26 3.2 0.0 0.00 0.00 0.00 96 1023.6
20220525081324 7 53 11.3 0.0 0.00 0.00 0.00 96 1024.0
20220525080810 7 46 9.7 0.0 0.00 0.00 0.00 97 1023.7
20220525080336 7 77 1.6 0.0 0.00 0.00 0.00 95 1024.1
20220525075826 7 30 4.8 0.0 0.00 0.00 0.00 95 1024.3
20220525075321 8 31 3.2 0.0 0.00 0.00 0.00 94 1024.0
20220525074805 8 88 1.6 0.0 0.00 0.00 0.00 94 1023.8
20220525074312 8 89 3.2 0.0 0.00 0.00 0.00 90 1023.8
20220525073818 8 83 4.8 0.0 0.00 0.00 0.00 90 1024.1
20220525073326 8 60 6.4 0.0 0.00 0.00 0.00 90 1023.8
20220525072818 8 87 4.8 0.0 0.00 0.00 0.00 92 1023.9
20220525072323 8 21 1.6 0.0 0.00 0.00 0.00 93 1023.8
20220525071809 8 83 9.7 0.0 0.00 0.00 0.00 92 1023.7
20220525071315 8 53 6.4 0.0 0.00 0.00 0.00 92 1023.8
20220525070819 8 62 4.8 0.0 0.00 0.00 0.00 92 1024.1
20220525070323 7 76 3.2 0.0 0.00 0.00 0.00 94 1023.8
20220525065818 7 79 6.4 0.0 0.00 0.00 0.00 94 1024.4
20220525065321 7 38 8.0 0.0 0.00 0.00 0.00 100 1024.1
20220525064825 6 43 1.6 0.0 0.00 0.00 0.00 100 1023.5
20220525064307 6 47 1.6 0.0 0.00 0.00 0.00 100 1024.4
20220525063811 6 46 1.6 0.0 0.00 0.00 0.00 100 1024.1
20220525063331 6 1 8.0 0.0 0.00 0.00 0.00 100 1024.3
20220525062807 6 0 1.6 0.0 0.00 0.00 0.00 100 1024.0
20220525062318 6 0 0.0 0.0 0.00 0.00 0.00 100 1024.3
20220525061811 6 0 0.0 0.0 0.00 0.00 0.00 100 1023.6
20220525061302 6 0 1.6 0.0 0.00 0.00 0.00 100 1023.9
20220525060813 6 0 1.6 0.0 0.00 0.00 0.00 100 1023.9
20220525060325 6 0 1.6 0.0 0.00 0.00 0.00 100 1023.8
20220525055807 6 0 1.6 0.0 0.00 0.00 0.00 100 1023.8
20220525055316 6 0 4.8 0.0 0.00 0.00 0.00 100 1024.0
20220525054809 6 0 3.2 0.0 0.00 0.00 0.00 100 1024.4
20220525054300 6 0 1.6 0.0 0.00 0.00 0.00 100 1024.3
20220525053814 6 0 3.2 0.0 0.00 0.00 0.00 100 1024.4
20220525053326 6 0 1.6 0.0 0.00 0.00 0.00 100 1024.6
20220525052808 6 0 1.6 0.0 0.00 0.00 0.00 100 1024.4
20220525052300 6 0 3.2 0.0 0.00 0.00 0.00 100 1024.5
20220525051812 6 354 1.6 0.0 0.00 0.00 0.00 100 1024.5
20220525051303 6 354 3.2 0.0 0.00 0.00 0.00 100 1024.3
20220525050815 6 354 1.6 0.0 0.00 0.00 0.00 100 1024.3
20220525050327 6 6 1.6 0.0 0.00 0.00 0.00 100 1024.4
20220525045819 6 30 6.4 0.0 0.00 0.00 0.00 100 1024.1
20220525045324 6 17 3.2 0.0 0.00 0.00 0.00 100 1024.1
20220525044810 6 16 1.6 0.0 0.00 0.00 0.00 100 1024.8
20220525044307 5 16 1.6 0.0 0.00 0.00 0.00 100 1024.7
20220525043813 5 32 1.6 0.0 0.00 0.00 0.00 100 1024.7
20220525043338 5 13 1.6 0.0 0.00 0.00 0.00 100 1024.5
20220525042808 5 8 3.2 0.0 0.00 0.00 0.00 100 1024.3
20220525042313 5 7 3.2 0.0 0.00 0.00 0.00 100 1024.3
20220525041818 5 7 1.6 0.0 0.00 0.00 0.00 100 1024.2
20220525041319 5 8 3.2 0.0 0.00 0.00 0.00 100 1024.4
20220525040825 5 21 6.4 0.0 0.00 0.00 0.00 100 1024.5
20220525040326 5 7 8.0 0.0 0.00 0.00 0.00 100 1024.4
20220525035819 5 20 1.6 0.0 0.00 0.00 0.00 100 1024.4
20220525035321 5 20 6.4 0.0 0.00 0.00 0.00 100 1024.5
20220525034804 5 0 3.2 0.0 0.00 0.00 0.00 100 1024.4
20220525034315 5 359 3.2 0.0 0.00 0.00 0.00 100 1024.4
20220525033808 5 359 1.6 0.0 0.00 0.00 0.00 100 1024.5
20220525033320 5 358 1.6 0.0 0.00 0.00 0.00 100 1024.1
20220525032816 5 0 3.2 0.0 0.00 0.00 0.00 100 1024.4
20220525032320 5 19 6.4 0.0 0.00 0.00 0.00 100 1023.9
20220525031826 5 1 3.2 0.0 0.00 0.00 0.00 100 1024.1
20220525031306 5 359 1.6 0.0 0.00 0.00 0.00 100 1024.3
20220525030818 5 359 1.6 0.0 0.00 0.00 0.00 100 1024.4
20220525030309 5 359 6.4 0.0 0.00 0.00 0.00 100 1024.7
20220525025810 5 359 3.2 0.0 0.00 0.00 0.00 100 1024.5
20220525025302 5 0 3.2 0.0 0.00 0.00 0.00 100 1024.3
20220525024814 5 0 4.8 0.0 0.00 0.00 0.00 100 1024.2
20220525024301 5 0 1.6 0.0 0.00 0.00 0.00 100 1024.2
20220525023813 5 0 3.2 0.0 0.00 0.00 0.00 100 1024.7
20220525023327 5 0 3.2 0.0 0.00 0.00 0.00 100 1024.5
20220525022808 5 3 3.2 0.0 0.00 0.00 0.00 100 1024.1
20220525022311 6 0 3.2 0.0 0.00 0.00 0.00 100 1024.6
20220525021802 6 0 3.2 0.0 0.00 0.00 0.00 100 1024.3
20220525021314 6 0 3.2 0.0 0.00 0.00 0.00 100 1023.8
20220525020807 6 10 1.6 0.0 0.00 0.00 0.00 100 1024.2
20220525020332 6 9 3.2 0.0 0.00 0.00 0.00 100 1024.3
20220525015825 6 10 3.2 0.0 0.00 0.00 0.00 100 1024.0
20220525015307 6 19 1.6 0.0 0.00 0.00 0.00 100 1024.1
20220525014811 6 30 1.6 0.0 0.00 0.00 0.00 100 1023.7
20220525014315 6 30 1.6 0.0 0.00 0.00 0.00 99 1024.7
20220525013817 6 31 1.6 0.0 0.00 0.00 0.00 99 1024.1
20220525013319 6 0 1.6 0.0 0.00 0.00 0.00 98 1024.1
20220525012814 6 0 1.6 0.0 0.00 0.00 0.00 98 1024.3
20220525012316 7 31 1.6 0.0 0.00 0.00 0.00 97 1024.1
20220525011818 7 14 3.2 0.0 0.00 0.00 0.00 97 1024.1
20220525011322 7 13 1.6 0.0 0.00 0.00 0.00 97 1024.1
20220525010807 7 12 1.6 0.0 0.00 0.00 0.00 96 1023.7
20220525010332 7 12 4.8 0.0 0.00 0.00 0.00 95 1023.8
20220525005825 7 13 3.2 0.0 0.00 0.00 0.00 94 1024.2
20220525005308 7 13 1.6 0.0 0.00 0.00 0.00 93 1023.8
20220525004814 7 13 1.6 0.0 0.00 0.00 0.00 93 1023.9
20220525004316 7 19 1.6 0.0 0.00 0.00 0.00 93 1024.3
20220525003813 8 18 4.8 0.0 0.00 0.00 0.00 92 1024.0
20220525003321 8 19 3.2 0.0 0.00 0.00 0.00 92 1024.0
20220525002813 8 18 4.8 0.0 0.00 0.00 0.00 91 1024.3
20220525002313 8 16 4.8 0.0 0.00 0.00 0.00 90 1024.3
20220525001814 8 16 3.2 0.0 0.00 0.00 0.00 90 1024.3
20220525001317 8 22 4.8 0.0 0.00 0.00 0.00 90 1024.3
20220525000819 8 20 8.0 0.0 0.00 0.00 0.00 90 1023.9
20220525000322 8 43 9.7 0.0 0.00 0.00 0.00 89 1024.1
20220524235815 8 36 12.9 0.0 0.00 0.00 0.00 90 1024.0
20220524235318 8 31 11.3 0.0 0.00 0.00 0.00 89 1024.1
20220524234819 8 36 9.7 0.0 0.00 0.00 0.00 89 1024.4
20220524234319 8 41 8.0 0.0 0.00 0.00 0.00 89 1024.5
20220524233822 9 39 11.3 0.0 0.00 0.00 0.00 89 1024.8
20220524233320 9 34 9.7 0.0 0.00 0.00 0.00 88 1024.5
20220524232812 9 41 9.7 0.0 0.00 0.00 0.00 88 1024.9
20220524232313 9 40 8.0 0.0 0.00 0.00 0.00 88 1024.8
20220524231816 9 27 6.4 0.0 0.00 0.00 0.00 87 1024.0
20220524231318 9 32 6.4 0.0 0.00 0.00 0.00 86 1024.6
20220524230821 10 42 6.4 0.0 0.00 0.00 0.00 86 1024.2
20220524230321 10 37 8.0 0.0 0.00 0.00 0.00 86 1024.1
20220524225813 10 33 9.7 0.0 0.00 0.00 0.00 85 1024.5
20220524225315 10 43 8.0 0.0 0.00 0.00 0.00 85 1024.6
20220524224818 10 39 9.7 0.0 0.00 0.00 0.00 85 1024.1
20220524224322 10 30 11.3 0.0 0.00 0.00 0.00 86 1024.3
20220524223829 10 37 9.7 0.0 0.00 0.00 0.00 85 1024.7
20220524223330 10 35 12.9 0.0 0.00 0.00 0.00 86 1024.7
20220524222814 10 36 9.7 0.0 0.00 0.00 0.00 85 1024.5
20220524222317 10 42 9.7 0.0 0.00 0.00 0.00 85 1024.5
20220524221819 10 41 11.3 0.0 0.00 0.00 0.00 84 1024.4
20220524221321 10 48 9.7 0.0 0.00 0.00 0.00 85 1024.9
20220524220827 10 28 11.3 0.0 0.00 0.00 0.00 84 1024.4
20220524220331 10 38 11.3 0.0 0.00 0.00 0.00 85 1024.6
20220524215825 10 42 12.9 0.0 0.00 0.00 0.00 85 1024.6
20220524215308 10 28 14.5 0.0 0.00 0.00 0.00 86 1024.3
20220524214811 10 33 14.5 0.0 0.00 0.00 0.00 85 1024.4
20220524214314 10 37 12.9 0.0 0.00 0.00 0.00 84 1024.7
20220524213814 10 34 12.9 0.0 0.00 0.00 0.00 85 1024.3
20220524213339 10 29 14.5 0.0 0.00 0.00 0.00 85 1024.2
20220524212828 10 38 14.5 0.0 0.00 0.00 0.00 85 1024.6
20220524212310 10 35 12.9 0.0 0.00 0.00 0.00 83 1024.6
20220524211811 10 33 16.1 0.0 0.00 0.00 0.00 84 1024.6
20220524211314 10 35 16.1 0.0 0.00 0.00 0.00 83 1024.6
20220524210816 10 41 14.5 0.0 0.00 0.00 0.00 83 1024.5
20220524210320 11 36 14.5 0.0 0.00 0.00 0.00 83 1024.6
20220524205813 11 37 14.5 0.0 0.00 0.00 0.00 84 1024.5
20220524205314 11 44 12.9 0.0 0.00 0.00 0.00 82 1024.6
20220524204816 11 40 12.9 0.0 0.00 0.00 0.00 84 1024.5
20220524204321 10 42 16.1 0.0 0.00 0.00 0.00 83 1024.7
20220524203827 11 30 16.1 0.0 0.00 0.00 0.00 82 1024.3
20220524203326 11 32 17.7 0.0 0.00 0.00 0.00 81 1024.5
20220524202813 11 25 14.5 0.0 0.00 0.00 0.00 81 1024.7
20220524202318 11 29 14.5 0.0 0.00 0.00 0.00 81 1024.6
20220524201818 11 31 16.1 0.0 0.00 0.00 0.00 82 1024.3
20220524201315 11 40 16.1 0.0 0.00 0.00 0.00 83 1024.4
20220524200818 11 38 16.1 0.0 0.00 0.00 0.00 83 1024.7
20220524200320 11 25 14.5 0.0 0.00 0.00 0.00 83 1024.5
20220524195815 11 37 12.9 0.0 0.00 0.00 0.00 80 1024.3
20220524195317 11 31 12.9 0.0 0.00 0.00 0.00 81 1024.7
20220524194816 11 25 16.1 0.0 0.00 0.00 0.00 81 1024.7
20220524194317 11 39 12.9 0.0 0.00 0.00 0.00 81 1024.7
20220524193822 11 29 14.5 0.0 0.00 0.00 0.00 81 1024.8
20220524193325 11 24 16.1 0.0 0.00 0.00 0.00 81 1024.6
20220524192813 11 32 16.1 0.0 0.00 0.00 0.00 82 1024.8
20220524192315 11 40 16.1 0.0 0.00 0.00 0.00 82 1024.8
20220524191817 11 37 11.3 0.0 0.00 0.00 0.00 81 1025.2
20220524191318 11 29 14.5 0.0 0.00 0.00 0.00 80 1025.3
20220524190816 11 27 14.5 0.0 0.00 0.00 0.00 79 1025.3
20220524190337 11 32 14.5 0.0 0.00 0.00 0.00 81 1024.8
20220524185828 11 35 12.9 0.0 0.00 0.00 0.00 80 1025.0
20220524185327 11 41 12.9 0.0 0.00 0.00 0.00 80 1025.3
20220524184828 11 38 14.5 0.0 0.00 0.00 0.00 80 1025.6
20220524184309 11 30 12.9 0.0 0.00 0.00 0.00 81 1025.3
20220524183811 11 48 11.3 0.0 0.00 0.00 0.00 82 1025.0
20220524183334 11 47 12.9 0.0 0.00 0.00 0.00 81 1025.2
20220524182826 11 58 11.3 0.0 0.00 0.00 0.00 81 1025.6
20220524182326 11 55 11.3 12.9 0.00 0.00 0.00 79 1026.0
20220524181828 11 53 9.7 14.5 0.00 0.00 0.00 78 1025.6
20220524181310 11 43 12.9 14.5 0.00 0.00 0.00 79 1025.4
20220524180830 11 45 11.3 12.9 0.00 0.00 0.00 78 1025.4
20220524180320 11 41 9.7 12.9 0.00 0.00 0.00 78 1025.3
20220524175826 11 51 9.7 12.9 0.00 0.00 0.00 77 1025.7
20220524175328 11 48 9.7 12.9 0.00 0.00 0.00 77 1025.5
20220524174829 11 42 9.7 12.9 0.00 0.00 0.00 76 1026.0
20220524174308 11 43 9.7 12.9 0.00 0.00 0.00 78 1025.9
20220524173813 11 45 9.7 12.9 0.00 0.00 0.00 77 1025.6
20220524173337 11 51 11.3 12.9 0.00 0.00 0.00 75 1025.3
20220524172820 11 42 9.7 11.3 0.00 0.00 0.00 76 1025.8
20220524172326 11 44 8.0 11.3 0.00 0.00 0.00 76 1025.7
20220524171827 11 40 9.7 11.3 0.00 0.00 0.00 75 1025.2
20220524171325 11 35 8.0 9.7 0.00 0.00 0.00 75 1025.8
20220524170815 11 50 6.4 11.3 0.00 0.00 0.00 75 1025.6
20220524170313 11 40 8.0 11.3 0.00 0.00 0.00 75 1025.8
20220524165818 11 49 6.4 11.3 0.00 0.00 0.00 74 1026.0
20220524165320 11 45 9.7 12.9 0.00 0.00 0.00 75 1025.6
20220524164819 11 50 9.7 12.9 0.00 0.00 0.00 75 1025.6
20220524164321 11 45 9.7 11.3 0.00 0.00 0.00 74 1026.3
20220524163824 11 48 8.0 11.3 0.00 0.00 0.00 74 1026.0
20220524163329 11 44 8.0 11.3 0.00 0.00 0.00 74 1025.9
20220524162818 11 43 9.7 11.3 0.00 0.00 0.00 73 1026.1
20220524162322 11 43 9.7 11.3 0.00 0.00 0.00 74 1026.0
20220524161828 11 42 9.7 11.3 0.00 0.00 0.00 74 1025.9
20220524161330 11 45 8.0 12.9 0.00 0.00 0.00 74 1026.0
20220524160831 11 37 9.7 12.9 0.00 0.00 0.00 75 1026.3
20220524160320 11 34 9.7 14.5 0.00 0.00 0.00 76 1026.1
20220524155818 10 44 11.3 14.5 0.00 0.00 0.00 76 1025.8
20220524155321 10 32 11.3 14.5 0.00 0.00 0.00 78 1026.3
20220524154821 10 26 11.3 14.5 0.00 0.00 0.00 74 1026.2
20220524154322 10 38 12.9 14.5 0.00 0.00 0.00 75 1026.1
20220524153825 10 26 11.3 16.1 0.00 0.00 0.00 74 1025.9
20220524153323 10 32 12.9 16.1 0.00 0.00 0.00 73 1026.1
20220524152816 10 37 12.9 16.1 0.00 0.00 0.00 72 1026.4
20220524152318 10 34 14.5 16.1 0.00 0.00 0.00 72 1026.2
20220524151821 10 20 14.5 17.7 0.00 0.00 0.00 73 1026.4
20220524151323 11 39 14.5 17.7 0.00 0.00 0.00 71 1026.4
20220524150828 11 44 16.1 17.7 0.00 0.00 0.00 71 1026.5
20220524150323 11 29 12.9 16.1 0.00 0.00 0.00 70 1026.2
20220524145816 11 25 11.3 14.5 0.00 0.00 0.00 70 1026.8
20220524145316 10 28 9.7 16.1 0.00 0.00 0.00 70 1026.4
20220524144815 11 35 11.3 16.1 0.00 0.00 0.00 72 1025.8
20220524144319 11 30 11.3 14.5 0.00 0.00 0.00 71 1026.0
20220524143827 10 40 11.3 14.5 0.00 0.00 0.00 72 1026.2
20220524143331 10 34 12.9 14.5 0.00 0.00 0.00 72 1026.0
20220524142819 10 26 12.9 16.1 0.00 0.00 0.00 72 1026.1
20220524142320 10 35 14.5 17.7 0.00 0.00 0.00 73 1026.5
20220524141821 10 41 14.5 17.7 0.00 0.00 0.00 72 1026.6
20220524141324 10 29 12.9 16.1 0.00 0.00 0.00 72 1026.2
20220524140808 10 35 11.3 16.1 0.00 0.00 0.00 72 1026.1
20220524140333 10 39 11.3 16.1 0.00 0.00 0.00 70 1026.0
20220524135813 10 41 9.7 16.1 0.00 0.00 0.00 71 1026.2
20220524135312 10 28 12.9 17.7 0.00 0.00 0.00 72 1026.0
20220524134810 10 40 14.5 17.7 0.00 0.00 0.00 72 1026.0
20220524134317 10 31 14.5 17.7 0.00 0.00 0.00 72 1026.5
20220524133821 10 33 12.9 16.1 0.00 0.00 0.00 74 1026.3
20220524133322 10 27 12.9 16.1 0.00 0.00 0.00 73 1026.0
20220524132812 10 19 9.7 12.9 0.00 0.00 0.00 74 1026.3
20220524132319 10 28 9.7 12.9 0.00 0.00 0.00 73 1026.2
20220524131820 10 31 9.7 12.9 0.00 0.00 0.00 74 1026.2
20220524131322 9 39 9.7 12.9 0.00 0.00 0.00 74 1025.7
20220524130821 9 32 9.7 11.3 0.00 0.00 0.00 74 1025.8
20220524130322 9 40 6.4 11.3 0.00 0.00 0.00 76 1026.5
20220524125322 8 35 9.7 14.5 0.00 0.00 0.00 76 1026.2
20220524124831 8 27 9.7 14.5 0.00 0.00 0.00 76 1025.9